EN

Hourly Weather Labunie

Today, 24 July, Saturday

Time Temperature Precipitation Wind Pressure Humidity
00:00 +19°C° 0 mm 1 mps 742 mmHg 72%
01:00 +19°C° 0 mm 1 mps 742 mmHg 72%
02:00 +19°C° 0 mm 1 mps 742 mmHg 72%
03:00 +19°C° 0 mm 1 mps 742 mmHg 73%
04:00 +19°C° 0 mm 1 mps 742 mmHg 73%
05:00 +17°C° 0 mm 0 mps 742 mmHg 74%
06:00 +17°C° 0 mm 0 mps 742 mmHg 74%
07:00 +18°C° 0 mm 0 mps 742 mmHg 73%
08:00 +19°C° 0 mm 0 mps 742 mmHg 72%
09:00 +19°C° 0 mm 0 mps 742 mmHg 69%
10:00 +22°C° 0 mm 1 mps 742 mmHg 66%
11:00 +23°C° 0 mm 1 mps 742 mmHg 62%
12:00 +24°C° 0 mm 1 mps 742 mmHg 59%
13:00 +25°C° 0 mm 2 mps 742 mmHg 55%
14:00 +26°C° 0 mm 2 mps 742 mmHg 52%
15:00 +26°C° 0 mm 2 mps 742 mmHg 51%
16:00 +26°C° 0 mm 1 mps 742 mmHg 51%
17:00 +26°C° 0 mm 1 mps 742 mmHg 51%
18:00 +25°C° 0 mm 1 mps 742 mmHg 57%
19:00 +24°C° 0 mm 1 mps 742 mmHg 62%
20:00 +21°C° 0 mm 2 mps 742 mmHg 68%
21:00 +20°C° 0 mm 2 mps 742 mmHg 70%
22:00 +19°C° 0 mm 2 mps 742 mmHg 72%
23:00 +18°C° 0 mm 2 mps 742 mmHg 74%

Tomorrow, 25 July, Sunday

Time Temperature Precipitation Wind Pressure Humidity
00:00 +18°C° 0 mm 2 mps 742 mmHg 74%
01:00 +18°C° 0 mm 2 mps 742 mmHg 74%
02:00 +18°C° 0 mm 2 mps 742 mmHg 74%
03:00 +18°C° 0 mm 3 mps 742 mmHg 73%
04:00 +18°C° 0 mm 3 mps 742 mmHg 73%
05:00 +18°C° 0 mm 3 mps 742 mmHg 72%
06:00 +19°C° 0 mm 3 mps 742 mmHg 72%
07:00 +19°C° 0 mm 3 mps 742 mmHg 72%
08:00 +20°C° 0 mm 4 mps 742 mmHg 72%
09:00 +21°C° 0 mm 4 mps 742 mmHg 69%
10:00 +22°C° 0 mm 4 mps 742 mmHg 67%
11:00 +23°C° 0 mm 4 mps 742 mmHg 64%
12:00 +26°C° 0 mm 4 mps 742 mmHg 59%
13:00 +27°C° 0 mm 4 mps 742 mmHg 55%
14:00 +28°C° 0 mm 5 mps 742 mmHg 50%
15:00 +28°C° 0 mm 4 mps 742 mmHg 50%
16:00 +29°C° 0 mm 4 mps 742 mmHg 51%
17:00 +29°C° 0 mm 4 mps 742 mmHg 51%
18:00 +27°C° 0 mm 4 mps 742 mmHg 56%
19:00 +26°C° 0 mm 3 mps 742 mmHg 62%
20:00 +24°C° 0 mm 3 mps 742 mmHg 67%
21:00 +22°C° 0 mm 3 mps 742 mmHg 70%
22:00 +21°C° 0 mm 3 mps 742 mmHg 74%
23:00 +20°C° 0 mm 3 mps 742 mmHg 77%

Day after tomorrow, 26 July, Monday

Time Temperature Precipitation Wind Pressure Humidity
00:00 +20°C° 0 mm 3 mps 742 mmHg 77%
01:00 +20°C° 0 mm 4 mps 742 mmHg 77%
02:00 +20°C° 0 mm 4 mps 741 mmHg 77%
03:00 +20°C° 0 mm 4 mps 741 mmHg 77%
04:00 +20°C° 0 mm 4 mps 741 mmHg 76%
05:00 +20°C° 0 mm 4 mps 741 mmHg 75%
06:00 +20°C° 0 mm 4 mps 741 mmHg 73%
07:00 +21°C° 0 mm 5 mps 741 mmHg 71%
08:00 +22°C° 0 mm 5 mps 741 mmHg 69%
09:00 +23°C° 0 mm 5 mps 741 mmHg 66%
10:00 +25°C° 0 mm 4 mps 741 mmHg 64%
11:00 +26°C° 0 mm 4 mps 741 mmHg 61%
12:00 +27°C° 0 mm 4 mps 741 mmHg 57%
13:00 +29°C° 0 mm 4 mps 741 mmHg 54%
14:00 +30°C° 0 mm 4 mps 741 mmHg 50%
15:00 +30°C° 0 mm 5 mps 741 mmHg 52%
16:00 +30°C° 0 mm 5 mps 741 mmHg 53%
17:00 +30°C° 0 mm 5 mps 741 mmHg 55%
18:00 +29°C° 0 mm 5 mps 740 mmHg 60%
19:00 +27°C° 0 mm 5 mps 740 mmHg 65%
20:00 +26°C° 0 mm 5 mps 740 mmHg 69%
21:00 +25°C° 0.3 mm 4 mps 740 mmHg 74%
22:00 +22°C° 0.3 mm 4 mps 740 mmHg 78%
23:00 +21°C° 0.3 mm 3 mps 741 mmHg 83%

27 July, Tuesday

Time Temperature Precipitation Wind Pressure Humidity
00:00 +20°C° 0.1 mm 3 mps 740 mmHg 84%
01:00 +20°C° 0.1 mm 3 mps 740 mmHg 85%
02:00 +19°C° 0.1 mm 3 mps 740 mmHg 86%
03:00 +19°C° 0.1 mm 2 mps 740 mmHg 87%
04:00 +19°C° 0.1 mm 2 mps 740 mmHg 88%
05:00 +18°C° 0.1 mm 2 mps 740 mmHg 89%
06:00 +20°C° 0.1 mm 2 mps 740 mmHg 83%
07:00 +23°C° 0.1 mm 2 mps 740 mmHg 78%
08:00 +24°C° 0.1 mm 2 mps 740 mmHg 73%
09:00 +26°C° 0 mm 2 mps 740 mmHg 67%
10:00 +27°C° 0 mm 2 mps 741 mmHg 62%
11:00 +29°C° 0 mm 3 mps 741 mmHg 56%
12:00 +30°C° 0 mm 3 mps 740 mmHg 54%
13:00 +30°C° 0 mm 3 mps 740 mmHg 52%
14:00 +31°C° 0 mm 3 mps 740 mmHg 50%
15:00 +31°C° 0 mm 3 mps 740 mmHg 52%
16:00 +31°C° 0 mm 2 mps 740 mmHg 54%
17:00 +31°C° 0 mm 2 mps 740 mmHg 56%
18:00 +29°C° 0 mm 2 mps 739 mmHg 60%
19:00 +28°C° 0 mm 1 mps 739 mmHg 65%
20:00 +27°C° 0 mm 1 mps 738 mmHg 69%
21:00 +26°C° 0 mm 1 mps 738 mmHg 72%
22:00 +25°C° 0 mm 1 mps 738 mmHg 74%
23:00 +24°C° 0 mm 1 mps 738 mmHg 76%

28 July, Wednesday

Time Temperature Precipitation Wind Pressure Humidity
00:00 +23°C° 0.3 mm 1 mps 738 mmHg 81%
01:00 +21°C° 0.3 mm 2 mps 738 mmHg 86%
02:00 +21°C° 0.3 mm 2 mps 738 mmHg 91%
03:00 +20°C° 0 mm 2 mps 738 mmHg 92%
04:00 +19°C° 0 mm 2 mps 738 mmHg 93%
05:00 +19°C° 0 mm 2 mps 738 mmHg 94%
06:00 +20°C° 0 mm 2 mps 738 mmHg 89%
07:00 +21°C° 0 mm 3 mps 738 mmHg 83%
08:00 +22°C° 0 mm 3 mps 738 mmHg 77%
09:00 +23°C° 0.1 mm 4 mps 739 mmHg 74%
10:00 +25°C° 0.1 mm 4 mps 739 mmHg 71%
11:00 +26°C° 0.1 mm 5 mps 739 mmHg 68%
12:00 +26°C° 0.2 mm 5 mps 739 mmHg 70%
13:00 +26°C° 0.2 mm 5 mps 739 mmHg 73%
14:00 +25°C° 0.2 mm 5 mps 739 mmHg 75%
15:00 +23°C° 0.3 mm 5 mps 739 mmHg 78%
16:00 +23°C° 0.3 mm 5 mps 739 mmHg 80%
17:00 +22°C° 0.3 mm 5 mps 739 mmHg 83%
18:00 +22°C° 0.1 mm 4 mps 740 mmHg 84%
19:00 +21°C° 0.1 mm 4 mps 740 mmHg 85%
20:00 +21°C° 0.1 mm 3 mps 740 mmHg 86%
21:00 +20°C° 0 mm 3 mps 740 mmHg 89%
22:00 +19°C° 0 mm 3 mps 740 mmHg 91%
23:00 +18°C° 0 mm 3 mps 741 mmHg 94%

29 July, Thursday

Time Temperature Precipitation Wind Pressure Humidity
00:00 +18°C° 0 mm 3 mps 741 mmHg 94%
01:00 +18°C° 0 mm 3 mps 741 mmHg 94%
02:00 +17°C° 0 mm 3 mps 741 mmHg 94%
03:00 +17°C° 0 mm 3 mps 741 mmHg 94%
04:00 +17°C° 0 mm 2 mps 741 mmHg 94%
05:00 +17°C° 0 mm 2 mps 741 mmHg 94%
06:00 +18°C° 0 mm 3 mps 742 mmHg 86%
07:00 +20°C° 0 mm 3 mps 742 mmHg 79%
08:00 +21°C° 0 mm 3 mps 742 mmHg 72%
09:00 +24°C° 0 mm 3 mps 742 mmHg 64%
10:00 +25°C° 0 mm 3 mps 742 mmHg 56%
11:00 +27°C° 0 mm 3 mps 742 mmHg 48%
12:00 +28°C° 0 mm 3 mps 742 mmHg 46%
13:00 +28°C° 0 mm 3 mps 742 mmHg 44%
14:00 +29°C° 0 mm 3 mps 742 mmHg 42%
15:00 +28°C° 0 mm 3 mps 742 mmHg 45%
16:00 +28°C° 0 mm 3 mps 742 mmHg 48%
17:00 +27°C° 0 mm 2 mps 742 mmHg 51%
18:00 +26°C° 0 mm 2 mps 742 mmHg 54%
19:00 +25°C° 0 mm 1 mps 742 mmHg 58%
20:00 +24°C° 0 mm 1 mps 742 mmHg 61%
21:00 +23°C° 0 mm 1 mps 742 mmHg 63%
22:00 +22°C° 0 mm 1 mps 742 mmHg 65%
23:00 +21°C° 0 mm 1 mps 742 mmHg 67%
Show more